星链-4526 (STARLINK-4526 )

导读 | 豆包AI

STARLINK-4526是美国星链(Starlink)项目中的一颗卫星,于2022年8月10日发射升空,属于SpaceX打造的低轨互联网卫星星座组网卫星,旨在为全球范围提供高速卫星互联网接入服务,目前已在近地轨道运行,参与星座组网运营,支撑星链的通信服务覆盖能力。

基本信息
目录编号:
53438
目录名称:
STARLINK-4526
国际标识:
2022-097BC
轨道中心:
EARTH
卫星名称:
星链-4526
卫星全名:
星链-4526 (STARLINK-4526 )
卫星状态:
在轨 (已飞行1359 天)
发射日期:
2022-08-10 UTC
国别 :
美国 (US)
星等 :
--
轨道信息
数据来源 国际轨道数据 AOE轨道数据
星历时间 2026-04-29T22:15:15+0800
1天前
查看轨道信息
2026-04-24T08:00:00+0800
6天前
查看轨道信息
半长轴 6917.9km 6917.843km
偏心率 0.0001776 0.0001347
轨道倾角 53.219° 53.215°
近地点辐角 91.578° 83.159°
升交点赤经 235.246° 260.357°
平近点角 268.541° 115.302°
近地点 538.534km 538.774km
远地点 540.992km 540.638km
周期 95.438分钟 95.437分钟
每日圈数 15.088337 15.088523
详细信息
固有亮度:
5
最大亮度:
2.5
卫星平台:
Starlink v1.5
覆盖范围:
全球
运营商:
太空探索技术公司
运营商所在国:
美国
制造商(研发单位):
太空探索技术公司
制造商所在国:
美国
使用方式:
暂无
卫星简介
星链(Starlink)计划是由太空探索技术公司(SpaceX)提出的一个巨型低轨卫星互联网星座项目,计划在2019年至2024年间在太空搭建由约1.2万颗卫星组成的“星链”网络,其中1584颗将部署在地球上空550千米处的近地轨道,并从2020年开始工作。该卫星仍在工作。
2D轨道图
3D轨道图
轨道高度分析图
轨道倾角分析图
轨道综合分析图
查看轨道综合分析图